Location: Bathurst
(33.4193°S, 149.5775°E)
Time: 09:30:59
(UTC+10:00)

Vanguard 1 Rocket - Pass Details

Date: 20 June 2021
Orbit: 650 x 4226 km, 34.3° (Epoch: 02 August)

Event Time Altitude Azimuth Distance (km) Brightness Sun altitude
Rises 08:43:54 0° 299° (WNW) 8,365 12.1 16.0°
Reaches altitude 10° 08:50:06 10° 300° (WNW) 7,108 11.8 16.9°
Maximum altitude 09:12:12 74° 20° (NNE) 2,718 10.4 20.1°
Drops below altitude 10° 09:23:35 10° 102° (ESE) 3,988 11.1 21.6°
Sets 09:26:02 0° 103° (ESE) 4,655 11.4 21.9°
